GEFSNGP_500_meanwind_012.txt.gz
Wind_Speed
26 24 23 22 24 26 27 28 31 31 31 30 31 34 34 34 34 32 29 28 26 26 25 22 21 21 23 25 23 21 21 21 21 22 22 23 23 23 23 23 22 22 22 21
25 24 20 18 20 21 23 24 27 27 27 27 28 30 31 32 32 31 29 27 27 25 24 22 22 23 24 23 21 21 21 23 23 23 23 23 22 22 23 23 23 24 24 23
21 20 17 16 16 18 20 19 19 19 20 22 24 25 26 26 28 28 27 26 25 24 23 23 23 23 22 21 21 21 22 23 23 23 23 23 22 22 23 23 24 24 25 25
15 16 15 14 14 15 15 15 15 17 19 20 20 19 19 20 21 22 22 22 21 21 21 20 20 20 21 21 22 22 22 23 23 23 24 24 24 24 24 24 24 25 25 26
11 14 13 13 14 14 13 13 14 14 15 15 12 10 10 11 13 14 15 16 16 16 16 17 18 19 21 22 22 22 23 23 24 25 26 26 26 26 26 25 25 25 25 26
10 12 13 16 15 14 13 13 13 12 9 7 5 5 5 6 7 8 9 10 11 12 13 16 18 19 20 20 21 22 24 25 25 25 25 25 25 25 25 26 26 25 25 26
14 14 14 17 17 15 16 16 15 13 10 7 5 4 4 4 4 5 6 8 9 11 14 15 16 17 18 19 20 22 23 23 23 22 22 21 22 22 23 24 26 26 27 27
15 16 16 17 20 20 19 19 18 14 10 7 5 4 3 3 4 5 7 9 11 12 13 13 13 14 15 18 20 21 21 20 19 19 18 18 18 19 20 22 25 27 29 30
17 17 14 16 21 21 21 22 20 15 10 6 5 4 4 3 4 6 8 10 12 12 11 10 11 12 15 18 19 19 18 17 16 15 15 15 15 16 18 21 23 26 28 30
17 19 15 13 19 21 21 22 18 12 8 6 5 5 3 3 5 7 9 11 11 11 9 9 10 13 16 18 18 17 16 14 13 13 13 14 15 16 17 19 21 23 26 27
14 17 16 13 18 21 21 19 15 10 8 7 6 4 3 4 6 9 11 11 11 10 9 9 11 13 15 16 16 15 13 12 12 12 13 14 14 15 16 17 16 16 18 20
12 17 17 14 18 21 21 19 14 11 9 7 5 3 3 4 6 8 11 11 11 10 9 10 11 13 14 14 14 13 12 12 11 11 12 13 14 14 15 14 13 9 8 10
9 16 17 15 17 21 20 18 14 11 9 7 4 2 3 5 6 8 10 11 11 11 10 10 11 12 12 13 12 12 12 12 11 10 11 12 12 13 13 13 12 8 3 1
7 12 16 17 16 20 20 18 15 12 9 7 4 3 4 5 6 8 9 10 11 11 11 11 11 11 12 12 13 13 13 12 11 9 9 10 11 12 12 12 11 9 6 4
7 10 15 18 17 18 19 18 17 15 12 8 5 4 4 5 6 8 9 10 11 12 12 11 11 11 12 13 14 13 13 12 10 9 9 9 10 11 11 11 10 8 6 4
7 8 15 18 18 17 18 18 18 18 15 11 7 6 5 4 6 7 9 10 11 12 12 11 11 11 12 13 14 13 12 11 10 9 9 9 10 10 10 10 10 9 7 6
7 7 13 18 19 18 17 18 19 19 17 13 10 7 5 4 5 7 8 9 11 12 11 11 11 12 13 13 13 13 12 11 10 10 9 10 10 10 10 10 9 9 8 7
8 8 12 18 21 19 18 17 19 20 19 15 12 9 6 4 4 6 7 8 10 11 11 11 11 12 13 13 13 13 12 11 11 11 11 11 12 12 12 11 11 11 10 9
9 8 12 17 21 20 18 18 19 21 21 18 14 11 7 4 4 5 6 7 8 9 10 10 11 12 12 13 13 12 12 12 12 12 12 13 13 14 14 14 14 13 13 12
10 9 11 15 19 21 20 20 21 22 22 19 16 13 9 6 4 4 4 5 7 7 8 9 10 11 12 12 12 12 12 12 13 13 13 13 14 14 14 14 14 14 14 14
12 10 12 14 18 20 21 22 23 23 23 21 18 15 11 8 5 4 3 3 4 5 6 7 8 9 10 10 11 11 12 12 13 13 14 14 14 14 15 15 15 15 15 15
15 12 14 16 17 19 21 23 24 24 25 23 20 17 13 10 8 6 3 2 2 3 4 5 6 6 7 8 9 10 11 11 12 13 13 14 14 15 15 16 16 16 17 18
19 14 15 18 18 19 21 23 25 26 26 24 21 18 16 13 11 9 6 3 1 1 2 3 4 4 5 6 7 8 9 11 12 13 13 13 14 15 16 16 17 17 18 18
22 18 16 19 20 20 21 23 27 28 27 24 22 19 17 16 14 12 9 5 3 1 1 1 1 2 4 6 6 8 9 10 11 12 13 13 14 14 15 15 16 16 17 17
24 21 17 19 22 22 22 24 29 31 30 26 23 21 20 19 17 15 12 9 5 3 2 2 1 2 4 5 6 7 8 9 10 11 11 12 13 14 15 15 15 15 15 15
24 24 20 19 23 24 24 27 31 34 32 29 25 23 22 22 20 18 15 12 9 6 4 4 3 3 4 4 5 5 6 7 8 9 9 10 12 13 14 14 14 14 14 14
24 25 23 20 23 27 27 28 33 36 36 33 29 26 25 24 23 22 19 16 12 9 7 6 5 5 5 5 5 5 4 4 5 5 6 7 8 10 11 12 12 13 13 13

GEFSNGP_500_meanwind_018.txt.gz
Wind_Speed
18 15 14 14 10 11 16 20 20 21 23 22 24 24 23 22 20 20 22 23 24 24 23 22 22 22 22 23 24 24 24 25 24 23 22 22 21 22 22 22 21 21 21 22
11 8 8 9 10 10 13 16 17 18 18 18 20 20 19 20 21 22 22 23 23 23 22 21 21 21 21 23 23 24 24 24 23 24 24 23 23 23 23 23 23 23 23 22
5 4 7 8 8 8 9 10 11 12 12 11 11 12 13 14 15 16 17 17 17 18 18 18 18 19 20 20 21 22 23 23 23 24 24 24 24 24 24 24 25 25 25 24
1 5 5 7 7 6 8 6 6 5 4 4 5 6 6 6 7 8 8 9 10 11 13 14 15 16 18 18 19 21 22 22 22 23 24 25 25 25 25 25 25 26 26 26
0 3 3 5 9 8 7 7 5 3 3 3 2 2 3 1 1 1 2 3 4 6 8 9 12 14 16 17 18 19 20 21 23 24 25 26 26 25 25 25 25 26 26 26
2 3 5 4 7 7 7 7 6 4 4 3 2 1 3 4 4 4 3 2 1 4 6 9 11 14 16 17 18 19 20 22 23 25 25 25 24 23 23 23 23 23 24 25
2 3 4 4 4 5 7 7 6 4 3 3 1 2 4 5 5 5 4 3 4 6 8 11 13 15 16 16 17 19 21 22 23 23 23 22 21 21 20 20 21 21 22 23
3 3 3 3 4 6 6 5 5 5 3 2 3 3 4 4 4 4 4 5 7 9 11 13 14 14 15 16 17 19 21 22 22 22 21 20 19 18 18 19 20 21 22 23
4 3 2 3 4 6 7 7 6 5 1 3 4 3 3 4 4 4 6 7 9 11 12 12 13 14 15 16 18 19 20 21 21 20 19 17 17 17 17 18 20 21 22 23
5 4 3 4 4 5 7 7 6 4 2 4 4 3 3 3 4 6 7 10 11 12 12 12 13 14 15 17 18 19 19 19 19 18 17 17 16 16 16 17 19 19 20 22
5 4 4 4 4 5 7 7 5 4 4 5 4 3 3 4 5 7 9 11 12 12 12 12 13 14 15 16 17 18 19 19 19 18 17 16 14 14 15 16 17 18 18 18
7 3 4 4 4 5 8 7 5 4 4 4 3 2 3 5 7 8 10 12 12 12 12 13 14 14 15 17 18 19 20 19 18 16 15 13 13 13 14 14 15 15 15 14
10 3 2 4 5 6 8 8 6 4 4 3 2 1 3 5 7 9 11 11 11 12 13 13 14 15 16 17 19 20 20 18 16 14 13 12 12 12 12 13 13 14 13 12
14 4 2 5 7 7 8 8 6 5 5 4 2 1 3 5 8 9 10 11 11 12 13 14 15 15 16 17 18 18 17 15 14 12 11 11 11 11 11 12 12 13 12 11
18 7 2 5 8 8 8 8 6 5 5 4 3 2 3 5 7 9 10 11 12 13 14 14 15 15 16 16 17 16 15 14 13 12 11 11 11 11 12 12 12 12 11 11
21 11 1 5 9 9 9 8 6 6 6 5 5 4 4 5 7 8 9 10 12 13 14 14 15 15 15 16 16 15 14 14 13 13 12 13 13 13 13 13 13 12 12 11
26 16 5 4 9 10 10 9 8 7 8 7 7 6 5 5 6 8 9 10 11 13 13 14 14 15 15 15 15 14 14 14 14 14 14 15 15 15 15 15 15 14 14 13
28 21 10 2 7 11 12 10 8 8 8 9 9 8 7 6 6 7 8 9 11 12 12 13 14 14 15 15 15 14 14 15 15 15 15 16 16 16 17 16 16 16 15 15
30 25 17 7 3 10 13 12 10 9 9 10 10 10 8 8 7 7 7 8 9 10 11 12 13 13 14 15 15 15 15 15 15 15 15 15 16 16 17 17 17 17 17 17
28 28 22 14 6 6 11 14 13 11 10 10 12 12 10 9 8 7 6 7 8 9 9 10 11 12 13 13 14 14 14 14 14 14 14 14 15 15 16 16 17 17 18 18
25 27 26 20 12 7 9 13 15 14 12 11 13 13 12 11 10 8 7 6 6 6 7 8 9 10 11 11 12 12 12 12 12 12 12 13 13 14 14 15 16 17 17 18
22 24 25 24 19 13 10 12 15 16 16 15 14 15 15 14 12 10 8 6 5 5 5 6 7 8 9 9 9 10 10 10 11 11 11 11 12 12 13 13 14 15 16 16
19 21 23 24 23 20 15 13 15 17 18 18 18 17 16 16 15 13 11 8 6 4 4 5 5 6 6 7 7 7 8 8 9 10 10 10 11 12 12 12 13 13 14 14
18 19 21 23 24 24 21 17 15 17 18 20 21 20 19 19 17 16 14 11 8 6 5 4 4 4 5 5 4 4 5 6 7 8 9 9 10 11 11 11 12 12 12 13
18 19 20 22 23 24 24 21 17 17 18 20 22 23 22 21 20 19 17 15 12 9 7 5 4 4 4 4 3 2 2 3 4 6 7 8 9 9 10 10 11 12 12 13
20 20 20 21 22 24 25 25 21 18 18 20 22 24 24 24 23 22 20 19 16 12 10 8 6 5 5 4 4 3 3 2 2 3 5 6 7 8 8 9 10 11 12 12
24 23 22 22 23 24 25 25 25 21 18 19 21 24 26 26 26 24 23 22 20 17 14 11 9 8 7 6 6 6 5 5 4 4 5 6 6 7 7 8 8 9 10 11

GEFSNGP_500_meanwind_024.txt.gz
Wind_Speed
17 13 9 7 3 3 5 9 9 7 5 4 4 5 6 5 6 6 7 8 7 7 8 10 12 14 15 17 19 20 21 22 20 18 17 18 19 20 20 19 19 20 20 20
15 12 10 9 8 7 8 9 7 5 3 2 2 3 4 4 5 6 7 9 10 11 11 12 13 15 16 17 18 20 20 21 20 18 17 18 19 20 20 20 20 20 20 20
16 12 11 11 11 11 10 9 6 4 2 1 0 2 2 2 2 4 5 7 8 9 9 10 11 13 15 15 17 18 19 18 18 18 18 19 19 20 21 22 22 21 21 21
16 14 13 13 12 11 10 9 9 7 6 5 4 4 3 1 0 1 2 2 3 4 5 6 8 10 11 12 14 16 17 17 18 19 19 19 20 22 22 23 23 22 21 20
15 14 12 11 11 10 11 10 10 9 7 6 6 5 4 4 3 2 4 3 2 1 1 3 6 8 10 12 14 16 17 18 19 19 20 20 21 22 22 22 22 21 20 19
13 12 12 11 10 10 10 9 9 8 8 7 7 6 6 6 6 5 5 5 4 2 2 4 7 9 11 13 15 16 17 18 18 19 20 21 21 21 21 21 20 20 19 19
11 10 10 10 9 9 9 9 8 8 8 7 8 7 8 8 7 6 6 5 4 4 6 7 9 11 12 14 16 17 18 18 19 21 21 21 21 21 20 19 18 18 18 18
10 8 8 8 8 9 10 9 8 8 8 8 8 9 8 8 7 6 5 5 6 7 8 10 11 12 14 15 16 17 18 19 20 20 20 20 20 19 18 18 17 17 17 18
10 8 7 7 8 8 8 8 8 8 8 9 9 8 8 8 7 6 7 8 9 10 11 11 12 13 14 15 16 17 18 19 19 19 19 18 18 17 17 17 17 17 18 18
9 8 6 6 7 7 8 7 7 7 8 8 7 7 7 7 7 7 8 10 11 11 12 12 13 14 15 16 17 17 18 18 17 17 16 16 15 15 15 16 16 16 17 18
9 7 6 6 6 6 7 7 8 8 9 8 8 7 6 6 7 8 9 10 11 12 13 14 14 15 15 16 16 16 16 15 15 15 14 14 13 14 14 14 14 15 15 16
10 6 5 5 5 7 8 8 7 8 8 8 8 7 6 6 7 8 10 11 12 13 14 14 15 16 16 16 15 15 15 14 14 14 13 13 13 13 13 13 13 13 13 13
13 7 5 5 6 7 7 7 7 8 8 7 6 5 5 5 7 9 11 12 13 14 15 15 16 16 16 16 15 15 15 15 14 14 14 14 14 13 12 12 12 12 12 12
16 9 6 6 7 7 7 7 7 6 6 5 4 4 4 5 7 9 11 12 14 15 16 16 16 16 16 16 16 16 16 15 15 15 15 15 15 14 14 13 12 12 12 11
19 12 7 6 7 7 6 7 6 5 4 3 3 2 2 5 7 9 10 12 14 15 16 16 16 16 16 16 16 16 16 16 16 16 16 16 16 16 16 15 15 14 13 12
21 15 9 5 6 6 5 5 4 3 3 3 2 1 1 3 6 8 10 11 13 14 15 15 16 16 16 16 17 17 17 18 18 18 18 18 18 18 18 18 17 16 15 14
22 18 12 6 4 4 3 3 3 4 4 4 4 3 3 3 4 6 8 10 12 13 14 14 15 15 16 16 17 17 18 18 18 19 19 19 20 20 20 20 19 19 18 17
20 19 15 9 5 1 3 4 5 6 6 6 7 7 6 5 5 5 7 9 10 11 12 13 13 14 14 15 16 16 17 17 18 18 18 19 19 20 20 21 21 21 21 20
17 18 16 12 7 4 2 4 6 8 9 9 9 9 9 8 6 5 5 7 8 9 10 11 12 12 13 14 15 15 16 16 16 17 17 17 18 18 19 19 20 20 20 21
14 15 16 14 11 8 6 5 7 9 11 12 11 11 10 10 9 7 5 5 6 7 8 9 10 10 11 12 13 14 14 15 15 15 15 15 16 16 17 18 18 19 19 20
10 12 13 15 14 12 10 8 8 9 11 13 13 13 13 12 11 9 7 5 5 6 6 7 8 8 9 10 11 12 13 13 14 14 14 14 15 15 15 16 16 17 17 18
9 10 12 13 14 14 14 13 11 11 11 12 13 14 14 14 13 11 9 8 6 6 6 6 7 7 7 8 9 10 11 12 13 13 13 14 14 15 15 15 15 15 15 16
10 10 11 12 13 14 15 15 15 14 13 11 12 14 15 15 15 14 12 11 9 7 6 6 6 6 6 6 7 7 9 10 11 12 13 14 14 15 15 15 15 15 15 15
13 12 12 12 13 15 16 16 16 17 16 13 11 11 13 15 16 16 15 13 12 10 9 8 7 7 6 6 5 5 6 7 9 10 11 13 14 14 14 14 14 14 14 14
17 15 14 14 15 15 16 17 17 17 17 16 14 11 12 13 15 17 17 16 15 13 12 10 9 8 8 7 6 5 5 6 7 9 10 11 12 13 12 12 12 13 13 13
21 19 18 17 17 17 17 18 18 18 18 17 16 14 12 12 14 16 17 18 18 16 15 13 12 11 10 9 8 7 7 6 7 8 9 10 11 12 12 11 11 12 12 12
26 23 22 21 20 19 20 20 20 20 20 19 18 16 15 13 12 15 16 18 19 19 18 17 16 14 13 12 11 9 9 8 8 9 9 10 11 11 11 11 10 11 11 11

GEFSNGP_500_meanwind_030.txt.gz
Wind_Speed
23 21 20 18 16 14 12 11 11 10 8 7 7 6 6 6 6 6 6 6 7 7 7 6 6 6 7 8 10 12 14 16 18 19 19 18 19 19 20 21 21 21 22 22
21 19 18 17 17 16 15 13 12 11 10 9 9 8 7 7 8 8 7 7 6 5 4 3 4 6 8 10 12 14 15 16 17 16 17 17 17 17 18 19 20 21 21 22
19 17 15 14 14 14 13 13 12 12 12 10 10 10 9 9 9 9 8 6 5 3 1 1 3 5 7 9 11 12 13 14 14 14 14 15 16 17 19 20 20 21 22 22
17 15 14 14 13 13 12 12 12 12 12 11 11 11 10 10 10 10 10 9 7 6 4 3 3 4 5 7 8 10 12 13 15 15 16 17 18 19 20 21 22 22 23 23
16 14 12 12 12 12 12 12 11 11 11 11 11 12 12 12 12 13 12 11 9 8 6 5 4 5 6 7 9 11 13 14 15 17 17 18 19 20 21 22 23 23 23 22
14 12 11 10 9 9 9 10 10 10 10 11 12 12 12 12 13 13 13 11 10 8 7 6 6 7 8 9 11 12 13 15 16 17 18 19 20 21 21 22 22 22 22 21
13 11 10 9 8 8 8 7 8 9 10 11 12 12 13 13 13 12 12 11 10 9 8 8 9 9 10 11 12 13 15 16 16 17 18 19 19 19 20 20 19 19 19 18
12 10 9 7 7 7 7 7 8 8 10 11 11 11 11 11 11 11 11 10 10 10 10 11 11 12 12 13 14 15 16 16 17 17 18 18 18 17 17 17 16 16 16 16
13 10 8 7 7 6 6 6 7 8 9 9 9 9 9 10 10 11 11 12 12 12 12 13 14 14 15 15 16 16 17 17 17 18 17 17 17 16 16 15 14 14 13 14
14 10 8 7 7 6 6 5 5 6 6 7 7 7 8 9 10 11 12 13 13 13 14 15 16 17 17 17 18 18 18 18 18 17 17 17 17 16 15 14 13 12 11 11
13 10 8 7 7 6 6 5 5 5 5 5 5 5 7 8 10 11 12 13 14 14 15 16 16 17 17 18 18 17 17 18 18 18 17 18 17 16 15 14 13 11 10 10
12 9 7 7 7 6 6 5 4 4 4 4 4 5 6 8 9 11 13 14 14 15 16 16 16 16 17 17 17 17 17 18 18 18 18 18 18 17 16 15 13 12 12 11
12 8 5 6 6 6 5 4 3 3 2 2 3 4 6 7 9 11 12 13 14 15 16 16 16 16 16 16 17 17 18 18 18 19 19 19 19 19 18 17 16 15 14 13
13 8 5 5 5 5 4 4 3 2 1 1 2 3 5 6 7 10 11 12 13 14 15 15 15 15 16 16 16 17 18 18 19 19 19 20 20 20 20 19 18 17 17 16
13 9 7 6 5 4 3 3 3 3 3 2 2 2 4 5 6 8 10 11 12 13 14 14 15 15 15 15 16 17 17 18 19 19 20 20 20 21 22 22 21 20 19 19
13 11 8 7 5 4 3 4 4 4 4 4 3 3 3 4 5 6 8 9 10 11 12 13 13 14 14 14 15 16 16 17 18 19 19 19 20 20 21 22 22 22 21 21
12 11 9 8 7 5 4 5 5 6 5 5 5 4 3 3 3 4 5 7 8 9 10 11 12 13 13 14 14 15 15 16 17 17 18 18 19 19 20 21 22 22 23 23
11 10 10 9 8 7 6 6 6 7 7 7 6 6 5 4 3 3 3 5 6 7 8 9 10 11 12 12 13 14 14 15 16 16 17 17 18 18 19 19 20 21 21 22
10 9 10 10 9 8 8 8 8 8 8 8 7 7 6 5 5 4 3 3 4 5 6 7 9 10 10 11 12 13 13 14 14 15 16 16 17 17 18 18 19 19 20 20
11 10 9 10 10 10 9 9 9 9 9 8 7 7 7 6 6 5 4 3 3 3 4 6 7 8 9 9 10 11 12 13 14 14 15 16 16 17 17 17 18 18 18 19
15 12 11 10 10 10 10 10 11 11 10 9 7 6 7 7 7 7 7 6 5 4 4 4 5 6 7 8 8 9 11 12 12 13 14 15 16 17 17 17 17 17 17 17
19 16 14 13 12 11 11 11 11 11 12 11 8 6 5 6 7 8 8 8 7 6 5 4 4 5 6 6 7 8 8 9 10 11 13 14 14 15 16 16 16 16 16 16
23 21 19 16 15 13 13 12 11 11 11 11 10 8 6 6 6 7 8 9 9 8 8 6 5 5 5 5 5 6 7 7 8 9 10 12 13 14 14 15 15 15 16 16
27 26 23 21 19 17 16 15 13 12 11 11 11 9 8 7 6 7 8 9 9 9 10 9 8 6 6 5 5 5 6 6 7 8 9 10 11 12 13 14 14 14 15 15
30 29 28 26 24 22 20 18 17 15 14 12 11 10 9 8 7 7 9 10 10 10 10 11 11 10 8 7 6 6 6 7 7 8 8 9 10 11 12 12 13 13 13 14
33 32 32 30 29 27 25 23 21 19 17 15 13 11 10 9 8 8 8 9 11 12 12 12 12 12 12 10 9 8 7 7 8 8 9 9 9 10 10 11 11 12 12 13
36 35 34 34 33 31 29 27 25 23 21 19 17 15 13 11 10 9 8 8 9 11 13 13 13 13 14 14 13 11 10 9 8 9 9 9 10 10 9 10 10 11 11 12